FW2148 Weather Reports


Display with metric or nautical units.
time (UTC)temp
F
wind
direction
speed
MPH
gust
MPH
rain 1hr
in
rain 24hr
in
rain mn
in
humidity
%
barometer
mb
20260505111511 59 323 0.0 4.0 0.01 0.33 0.33 97 969.8
20260505101506 60 243 1.0 4.0 0.03 0.32 0.32 97 970.3
20260505100006 60 172 2.0 6.0 0.08 0.32 0.32 97 969.8
20260505094502 60 169 3.0 5.0 0.12 0.32 0.32 96 969.9
20260505093003 60 257 1.0 5.0 0.16 0.31 0.31 96 970.6
20260505091500 60 271 0.0 0.0 0.21 0.28 0.28 96 971.3
20260505084557 60 296 1.0 6.0 0.19 0.20 0.20 94 971.0
20260505083108 60 305 1.0 4.0 0.15 0.15 0.15 93 970.6
20260505081557 61 292 1.0 3.0 0.08 0.08 0.08 92 971.2
20260505080052 61 298 1.0 4.0 0.04 0.04 0.04 89 970.7
20260505074549 62 285 0.0 3.0 0.01 0.01 0.01 85 970.8
20260505073045 63 248 2.0 4.0 0.00 0.00 0.00 78 970.6
20260505071544 63 170 0.0 2.0 0.00 0.00 0.00 77 970.3
20260505070049 63 202 1.0 5.0 0.00 0.00 0.00 77 970.4
20260505064554 63 148 1.0 4.0 0.00 0.00 0.00 76 970.6
20260505063038 64 144 2.0 4.0 0.00 0.00 0.00 76 970.8
20260505061540 64 131 0.0 3.0 0.00 0.00 0.00 75 971.2
20260505060035 64 212 0.0 3.0 0.00 0.00 0.00 75 971.4
20260505054533 64 190 1.0 4.0 0.00 0.00 0.00 75 971.1
20260505053032 64 141 2.0 4.0 0.00 0.00 0.00 75 970.9
20260505051529 65 144 0.0 3.0 0.00 0.00 0.00 74 971.1
20260505041530 67 197 0.0 7.0 0.00 0.00 0.00 70 971.7
20260505040022 67 159 2.0 8.0 0.00 0.00 0.00 69 971.7
20260505034521 67 155 1.0 8.0 0.00 0.00 0.00 68 971.9
20260505033020 68 146 1.0 4.0 0.00 0.00 0.00 67 972.1
20260505031517 68 160 2.0 7.0 0.00 0.00 0.00 67 972.0
20260505030014 68 171 1.0 4.0 0.00 0.00 0.00 66 971.9
20260505024532 69 222 2.0 5.0 0.00 0.00 0.00 66 971.8
20260505023012 69 215 2.0 6.0 0.00 0.00 0.00 65 971.6
20260505021512 70 242 0.0 5.0 0.00 0.00 0.00 64 971.4
20260505020011 71 225 1.0 4.0 0.00 0.00 0.00 62 971.1
20260505014512 71 165 1.0 3.0 0.00 0.00 0.00 61 970.9
20260505013018 72 231 1.0 3.0 0.00 0.00 0.00 60 970.7
20260505011509 72 252 1.0 3.0 0.00 0.00 0.00 59 970.5
20260505010009 73 219 2.0 5.0 0.00 0.00 0.00 58 970.3
20260505004507 74 230 2.0 8.0 0.00 0.00 0.00 57 970.0
20260505003008 75 161 1.0 5.0 0.00 0.00 0.00 56 970.0
20260505001507 75 213 2.0 7.0 0.00 0.00 0.00 55 969.9
20260505000013 76 221 3.0 9.0 0.00 0.00 0.00 53 969.8
20260504234507 76 267 6.0 14.0 0.00 0.00 0.00 52 969.7
20260504233004 77 200 6.0 13.0 0.00 0.00 0.00 52 970.0
20260504231508 77 210 4.0 17.0 0.00 0.00 0.00 51 970.2
20260504230001 78 205 8.0 14.0 0.00 0.00 0.00 49 970.1
20260504224603 78 227 6.0 21.0 0.00 0.00 0.00 48 970.2
20260504223059 79 223 10.0 19.0 0.00 0.00 0.00 47 970.3
20260504221608 79 284 9.0 18.0 0.00 0.00 0.00 46 970.3
20260504220058 80 227 10.0 16.0 0.00 0.00 0.00 46 970.3
20260504214558 80 197 8.0 16.0 0.00 0.00 0.00 45 970.3
20260504213055 80 207 5.0 16.0 0.00 0.00 0.00 47 970.4
20260504211554 80 205 8.0 22.0 0.00 0.00 0.00 45 970.5
20260504210106 80 196 5.0 20.0 0.00 0.00 0.00 46 970.6
20260504204600 80 231 9.0 20.0 0.00 0.00 0.00 45 970.8
20260504203050 80 232 12.0 24.0 0.00 0.00 0.00 45 970.9
20260504201550 80 197 13.0 22.0 0.00 0.00 0.00 46 971.1
20260504200047 79 258 11.0 22.0 0.00 0.00 0.00 46 971.2
20260504194601 79 247 13.0 21.0 0.00 0.00 0.00 46 971.3
20260504193041 79 165 9.0 23.0 0.00 0.00 0.00 48 971.6
20260504191547 79 220 6.0 23.0 0.00 0.00 0.00 49 971.8
20260504190050 78 261 11.0 23.0 0.00 0.00 0.00 47 971.8
20260504184540 78 147 10.0 21.0 0.00 0.00 0.00 48 971.8
20260504183034 78 227 11.0 18.0 0.00 0.00 0.00 48 972.1
20260504181539 78 291 8.0 25.0 0.00 0.00 0.00 49 972.1
20260504180045 77 265 9.0 21.0 0.00 0.00 0.00 49 972.2
20260504174530 77 272 10.0 20.0 0.00 0.00 0.00 49 972.3
20260504173032 77 280 9.0 24.0 0.00 0.00 0.00 49 972.3
20260504171527 77 259 7.0 19.0 0.00 0.00 0.00 49 972.5